This is the latest recevied weather packets stored in our database for station/object OK1JIL-13. If no packets are shown the sender has not sent any weather packets the latest 10 day(s).
| Time | Temp. | Humidity | Pressure | Rain* | Wind** | Luminosity | Snow |
|---|---|---|---|---|---|---|---|
| 1776927169 | 8.33° C | 40% | 1020.3 hPa | - | - | - | - |
| 1776926569 | 7.78° C | 41% | 1020.2 hPa | - | - | - | - |
| 1776925969 | 7.78° C | 42% | 1020.3 hPa | - | - | - | - |
| 1776925369 | 7.78° C | 44% | 1020.3 hPa | - | - | - | - |
| 1776924769 | 6.67° C | 47% | 1020.1 hPa | - | - | - | - |
| 1776924169 | 7.22° C | 44% | 1020.4 hPa | - | - | - | - |
| 1776923569 | 7.22° C | 42% | 1020.3 hPa | - | - | - | - |
| 1776922969 | 7.22° C | 42% | 1020.5 hPa | - | - | - | - |
| 1776922369 | 7.78° C | 40% | 1020.5 hPa | - | - | - | - |
| 1776921769 | 7.78° C | 39% | 1020.7 hPa | - | - | - | - |
| 1776921169 | 7.78° C | 39% | 1020.5 hPa | - | - | - | - |
| 1776920569 | 7.78° C | 39% | 1020.5 hPa | - | - | - | - |
| 1776919969 | 7.78° C | 40% | 1020.6 hPa | - | - | - | - |
| 1776919369 | 7.22° C | 40% | 1020.6 hPa | - | - | - | - |
| 1776918769 | 6.67° C | 41% | 1020.6 hPa | - | - | - | - |
| 1776918169 | 7.22° C | 40% | 1020.6 hPa | - | - | - | - |
| 1776917569 | 7.22° C | 41% | 1020.4 hPa | - | - | - | - |
| 1776916969 | 6.67° C | 42% | 1020.4 hPa | - | - | - | - |
| 1776916369 | 6.67° C | 42% | 1020.6 hPa | - | - | - | - |
| 1776915769 | 7.22° C | 41% | 1020.5 hPa | - | - | - | - |
| 1776915169 | 7.22° C | 40% | 1020.6 hPa | - | - | - | - |
| 1776914569 | 6.67° C | 40% | 1020.6 hPa | - | - | - | - |
| 1776913969 | 7.22° C | 40% | 1020.6 hPa | - | - | - | - |
| 1776913369 | 6.11° C | 41% | 1020.6 hPa | - | - | - | - |
| 1776912769 | 6.67° C | 44% | 1020.8 hPa | - | - | - | - |
* Rain since midnight (hover to see other rain measurements)
** Current wind speed in m/s (hover to see current wind gust speed)